Погода в Бора-Бора

Французская Полинезия     16°29′56″S   151°44′17″W
темп.,
°C
ветер,
м/с
пор.,
м/с
влажн.,
%
обл.,
%
осадки,
мм/ч
давл.,
гПа
погр.,
м
19 сентября, вс
вс1923:00+26в787427 0.3 1016985
02:00+26в78746 0.3 10151008
05:00+26всв787510 0.1 1015978
08:00+25всв9107894 1.4 1017798
11:00+25всв9107698 2.4 1017843
14:00+25всв897685 3.9 1014800
17:00+26в88745 0.4 1014907
20:00+26в88725 0.4 10151062
20 сентября, пн
пн2023:00+26в77745 0.1 10161002
02:00+25в667657 0.9 1014685
05:00+26всв66696 1.3 1014869
08:00+26всв787610 1.4 1016890
11:00+26всв67695 0.1 10151027
14:00+26всв55736 0.1 1013876
17:00+26всв66700 0.0 10131000
20:00+26всв66691 0.0 10151061
21 сентября, вт
вт2123:00+26всв66670 0.0 10151034
02:00+26св56663 0.0 10131076
05:00+25св55660 0.0 10141071
08:00+25св44640 0.0 1015981
11:00+26всв346233 0.0 1015964
14:00+26св1158100 0.0 1014873
17:00+26с115734 0.0 1013837
20:00+26ссз115766 0.0 1015771
22 сентября, ср
ср2223:00+26ссв115997 0.0 1014683
02:00+25зюз22608 0.0 1013772
05:00+25юз226029 0.0 1014774
08:00+25ююз11584 0.0 1016792
11:00+25вюв00575 0.0 1015616
14:00+26зсз11555 0.0 1012755
17:00+26з22550 0.0 1012796
20:00+26сз22570 0.0 1013713
23 сентября, чт
чт2323:00+26зсз22580 0.0 1013762
02:00+25зсз33610 0.0 1011840
05:00+25зсз34650 0.0 1011845
08:00+25зсз44686 0.0 1013931
11:00+25зсз557214 0.1 1012902
14:00+25з667420 0.8 1011852
17:00+25з557417 0.3 1010850
20:00+25юз447421 0.5 1012794